This is the latest recevied weather packets stored in our database for station/object KF0EZB. If no packets are shown the sender has not sent any weather packets the latest 10 day(s).
| Time | Temp. | Humidity | Pressure | Rain* | Wind** | Luminosity | Snow |
|---|---|---|---|---|---|---|---|
| 1777562289 | 9.44° C | 97% | 1020.4 hPa | 0 mm | - | 123 W/m² | - |
| 1777561986 | 9.44° C | 97% | 1020.4 hPa | 0 mm | - | 111 W/m² | - |
| 1777561683 | 9.44° C | 97% | 1020.6 hPa | 0 mm | - | 102 W/m² | - |
| 1777561378 | 9.44° C | 97% | 1020.7 hPa | 0 mm | - | 121 W/m² | - |
| 1777561074 | 9.44° C | 97% | 1020.6 hPa | 0 mm | - | 115 W/m² | - |
| 1777560769 | 9.44° C | 97% | 1020.6 hPa | 0 mm | - | 93 W/m² | - |
| 1777560467 | 9.44° C | 97% | 1020.4 hPa | 0 mm | - | 101 W/m² | - |
| 1777560165 | 9.44° C | 97% | 1020.3 hPa | 0 mm | - | 113 W/m² | - |
| 1777559861 | 8.89° C | 97% | 1020.2 hPa | 0 mm | - | 107 W/m² | - |
| 1777559557 | 8.89° C | 97% | 1020.4 hPa | 0 mm | - | 103 W/m² | - |
| 1777559254 | 8.89° C | 97% | 1020.2 hPa | 0 mm | - | 101 W/m² | - |
| 1777558950 | 8.89° C | 97% | 1020.3 hPa | 1.78 mm | - | 85 W/m² | - |
| 1777558646 | 8.89° C | 97% | 1020.3 hPa | 1.78 mm | - | 87 W/m² | - |
| 1777558341 | 8.89° C | 96% | 1020.6 hPa | 0 mm | - | 82 W/m² | - |
| 1777558039 | 8.89° C | 96% | 1020.3 hPa | 0 mm | - | 75 W/m² | - |
| 1777557734 | 8.33° C | 96% | 1020.2 hPa | 0 mm | - | 70 W/m² | - |
| 1777557431 | 8.33° C | 96% | 1020.4 hPa | 0 mm | - | 69 W/m² | - |
| 1777557128 | 8.33° C | 96% | 1020.3 hPa | 1.27 mm | - | 75 W/m² | - |
| 1777556823 | 7.78° C | 96% | 1020.4 hPa | 1.27 mm | - | 63 W/m² | - |
| 1777556520 | 7.78° C | 96% | 1020.6 hPa | 0 mm | - | 48 W/m² | - |
| 1777556219 | 7.78° C | 95% | 1020.7 hPa | 1.78 mm | - | 40 W/m² | - |
| 1777555915 | 7.78° C | 95% | 1020.6 hPa | 0 mm | - | 37 W/m² | - |
| 1777555611 | 7.78° C | 95% | 1020.3 hPa | 0 mm | - | 34 W/m² | - |
| 1777555308 | 7.22° C | 95% | 1020.3 hPa | 0 mm | - | 29 W/m² | - |
| 1777555005 | 7.22° C | 95% | 1020.4 hPa | 0 mm | - | 25 W/m² | - |
* Rain latest hour (hover to see other rain measurements)
** Current wind speed in m/s (hover to see current wind gust speed)